星链-3547 (STARLINK-3547 )

导读

STARLINK-3547是美国SpaceX公司星链(Starlink)星座的组网卫星,于北京时间2022年3月3日发射入轨。星链星座旨在为全球提供低延迟、高速率的宽带互联网服务,尤其覆盖偏远等网络基础设施薄弱区域。作为低轨通信卫星,该卫星运行在近地轨道,是SpaceX大规模星座部署中的一员,支撑星链全球互联的服务能力,助力星座组网完善全球覆盖。

基本信息
目录编号:
51889
目录名称:
STARLINK-3547
国际标识:
2022-022AP
轨道中心:
EARTH
卫星名称:
星链-3547
卫星全名:
星链-3547 (STARLINK-3547 )
卫星状态:
在轨 (已飞行1567 天)
发射日期:
2022-03-03 UTC
国别 :
美国 (US)
星等 :
--
轨道信息
数据来源 国际轨道数据
星历时间: 2026-06-17T20:00:03+0800
5小时前
查看轨道信息
半长轴: 6901.695km
偏心率: 0.0001312
轨道倾角: 53.160°
近地点辐角 58.376°
升交点赤经 270.816°
平近点角 343.773°
近地点: 522.652km
远地点: 524.464km
周期: 95.103分钟
每日圈数: 15.141508
详细信息
固有亮度:
5
最大亮度:
2.5
卫星平台:
Starlink v1.5
覆盖范围:
全球
运营商:
太空探索技术公司
运营商所在国:
美国
制造商(研发单位):
太空探索技术公司
制造商所在国:
美国
使用方式:
暂无
卫星简介
星链(Starlink)计划是由太空探索技术公司(SpaceX)提出的一个巨型低轨卫星互联网星座项目,计划在2019年至2024年间在太空搭建由约1.2万颗卫星组成的“星链”网络,其中1584颗将部署在地球上空550千米处的近地轨道,并从2020年开始工作。该卫星仍在工作。
2D轨道图
3D轨道图
轨道高度分析图
轨道倾角分析图
轨道综合分析图
查看轨道综合分析图